Flag for U.S.A. Weather past 2 weeks in Provo, Utah, U.S.A.

Now
72 °F

Clear.


Feels Like: 77 °F
Forecast: 62 / 86 °F
Wind: No wind

Location: Provo Municipal

Current Time: Aug 31, 2015 at 10:20:15 PM

Latest Report: Aug 31, 2015 at 9:35 PM


Visibility: 10 mi

Pressure: 30.00 "Hg (25.55 "Hg at 1386m altitude)

Humidity: 53%

Dew point: 54 °F

Location of ProvoLocation

Historic Weather in Provo — Graph

°F

Provo temperature yesterday

Maximum temperature yesterday: 90 °F (at 2:49 PM)
Minimum temperature yesterday: 64 °F (at 11:35 PM)
Average temperature yesterday: 75 °F

Past Weeks' High & Low Weather Summary

 TemperatureHumidityPressure
High97 °F (Aug 25, 2:54 PM)100% (Aug 24, 6:54 AM)30.29 "Hg (Aug 24, 6:54 AM)
Low52 °F (Aug 19, 4:15 AM)14% (Aug 24, 4:48 PM)29.80 "Hg (Aug 21, 6:49 PM)
Average70 °F44%30.07 "Hg
* Reported Aug 16 8:52 PM — Aug 31 8:51 PM, Provo, Weather by CustomWeather, © 2015

Note: Actual official high and low records may vary slightly from our data, if they occured in-between our weather recording intervals... More about our weather records

Advertising

Provo weather history for previous 24 hours

 ConditionsComfort  
Time TempWeatherWind HumidityBarometerVisibility
8:51 PM
Mon, Aug 31
75 °FPassing clouds.10 mph41%29.98 "Hg15 mi
7:47 PM77 °FPassing clouds.10 mph47%29.97 "Hg15 mi
6:58 PM82 °FPassing clouds.6 mph28%29.97 "Hg15 mi
5:51 PM86 °FScattered clouds.6 mph27%29.98 "Hg15 mi
4:48 PM88 °FScattered clouds.3 mph22%29.98 "Hg15 mi
3:59 PM88 °FScattered clouds.3 mph17%30.00 "Hg15 mi
2:51 PM84 °FScattered clouds.3 mph29%30.03 "Hg15 mi
1:54 PM82 °FPassing clouds.7 mph30%30.06 "Hg15 mi
12:47 PM81 °FPassing clouds.No wind34%30.09 "Hg15 mi
11:55 AM75 °FPassing clouds.3 mph39%30.12 "Hg15 mi
10:55 AM73 °FPassing clouds.3 mph47%30.12 "Hg15 mi
9:55 AM70 °FPassing clouds.3 mph50%30.12 "Hg15 mi
8:55 AM64 °FPassing clouds.No wind56%30.12 "Hg15 mi
7:57 AM61 °FScattered clouds.3 mph63%30.10 "Hg15 mi
6:57 AM57 °FPassing clouds.3 mph67%30.03 "Hg15 mi
6:35 AM57 °FClear.7 mph63%30.08 "Hg10 mi
6:15 AM57 °FClear.3 mph67%30.07 "Hg10 mi
5:55 AM59 °FClear.6 mph63%30.07 "Hg10 mi
5:35 AM57 °FClear.6 mph67%30.06 "Hg10 mi
5:15 AM61 °FClear.No wind59%30.06 "Hg10 mi
4:55 AM61 °FClear.No wind59%30.06 "Hg10 mi
4:35 AM61 °FClear.6 mph59%30.06 "Hg10 mi
4:15 AM59 °FClear.8 mph68%30.05 "Hg10 mi
3:55 AM61 °FClear.No wind63%30.04 "Hg10 mi
3:35 AM61 °FClear.3 mph63%30.04 "Hg10 mi
3:15 AM61 °FClear.6 mph68%30.03 "Hg10 mi
2:55 AM63 °FClear.3 mph68%30.03 "Hg10 mi
2:35 AM64 °FClear.No wind64%30.03 "Hg10 mi
2:15 AM63 °FClear.No wind59%30.04 "Hg10 mi
1:55 AM63 °FClear.3 mph59%30.03 "Hg10 mi
1:35 AM63 °FClear.7 mph59%30.02 "Hg10 mi
1:15 AM64 °FPassing clouds.5 mph56%30.03 "Hg10 mi
12:55 AM66 °FPassing clouds.9 mph52%30.01 "Hg10 mi
12:35 AM64 °FPassing clouds.6 mph60%30.01 "Hg10 mi
12:15 AM64 °FOvercast.No wind60%30.00 "Hg10 mi
11:55 PM
Sun, Aug 30
66 °FOvercast.No wind56%29.99 "Hg10 mi
11:35 PM64 °FPassing clouds.6 mph64%29.99 "Hg10 mi
11:15 PM66 °FClear.8 mph60%29.99 "Hg10 mi
10:55 PM66 °FClear.10 mph56%29.98 "Hg10 mi
10:35 PM66 °FPassing clouds.9 mph60%29.97 "Hg10 mi
10:15 PM70 °FPassing clouds.No wind53%29.97 "Hg10 mi
Weather by CustomWeather, © 2015

See weather overviewHow to use our weather pages